Content
SEND FEEDBACK

Daily
Averages
Monthly
Summary
United States of America

FORTUNA, NORTH DAKOTA


Home > North America > United States > North Dakota
Elevation: 2204 feet     Latitude: 48 55N     Longitude: 103 49W

WEATHER
 
SELECT A DAY
Number of Records: 85,760;   Date Range: 11/18/10 - 9/15/14
 
SHARE

PRINT THIS DATA

[ ← Previous Day ]
WEATHER ALMANAC - JANUARY 31, 2013
[ Next Day → ]
[ °C ]   °F
Weather ElementAverageHighLow
Temperature-16 °F (3:35 pm)-22 °F (5:55 am)
Dewpoint-22.8 °F (3:35 pm)-29.2 °F (7:15 am)
Humidity70 %78 % (11:55 pm)63 % (10:15 am)
Barometer30.21 in30.31 in (9:35 am)30.03 in (11:55 pm)
Wind Speed12.9 mph23 mph (12:55 am)
Wind Gust27.6 mph (12:55 am)
Weather ElementAverage
Visibility9.6 mi
Wind DirectionW (270.6 °)

Weather ElementTotal
Precipitation---
Heating Degree Days76 (Base 65)
Averaged from 68 records on January 31, 2013
WEATHER CONDITIONS BREAKOUT
WIND DIRECTION BREAKOUT
WEATHER BY HOUR - JANUARY 31, 2013
[ °C ]   °F
Local TimeTemperatureDewpointHumidityBarometerVisibilityWind DirectionWind SpeedGust SpeedPrecipitationEventsConditions
12:35 AM-16.6 °F-23.8 °F70 %30.12 in3.0 miNNW (330°)21.9 mphHaze
12:55 AM-16.6 °F-23.8 °F70 %30.13 in4.0 miNNW (340°)23.0 mph27.6 mphRainLight Rain
1:15 AM-16.6 °F-23.8 °F70 %30.14 in9.0 miNNW (330°)18.4 mphMostly Cloudy
1:35 AM-18.4 °F-23.8 °F76 %30.15 in9.0 miNW (320°)18.4 mph25.3 mphMostly Cloudy
1:55 AM-18.4 °F-23.8 °F76 %30.16 in10.0 miNW (320°)17.3 mphMostly Cloudy
2:15 AM-18.4 °F-25.6 °F70 %30.17 in10.0 miNW (320°)17.3 mphScattered Clouds
2:35 AM-18.4 °F-25.6 °F70 %30.18 in10.0 miNW (320°)17.3 mphScattered Clouds
2:55 AM-18.4 °F-25.6 °F70 %30.19 in10.0 miNW (320°)18.4 mph24.2 mphPartly Cloudy
3:15 AM-20.2 °F-25.6 °F76 %30.20 in10.0 miNW (310°)19.6 mphClear
3:35 AM-20.2 °F-25.6 °F76 %30.20 in10.0 miNW (310°)17.3 mphPartly Cloudy
3:55 AM-20.2 °F-25.6 °F76 %30.21 in10.0 miNW (310°)16.1 mphMostly Cloudy
4:15 AM-20.2 °F-27.4 °F69 %30.21 in10.0 miNW (310°)15.0 mphPartly Cloudy
4:35 AM-20.2 °F-27.4 °F69 %30.22 in10.0 miNW (310°)15.0 mphClear
4:55 AM-20.2 °F-27.4 °F69 %30.23 in10.0 miNW (310°)13.8 mphClear
5:15 AM-20.2 °F-27.4 °F69 %30.24 in10.0 miWNW (300°)15.0 mphClear
5:35 AM-20.2 °F-27.4 °F69 %30.24 in10.0 miNW (310°)13.8 mphClear
5:55 AM-22.0 °F-27.4 °F76 %30.25 in10.0 miWNW (300°)13.8 mphClear
6:15 AM-22.0 °F-27.4 °F76 %30.26 in10.0 miWNW (300°)17.3 mphClear
6:35 AM-22.0 °F-27.4 °F76 %30.27 in10.0 miWNW (300°)17.3 mphClear
6:55 AM-22.0 °F-27.4 °F76 %30.27 in10.0 miNW (310°)16.1 mphClear
7:15 AM-22.0 °F-29.2 °F69 %30.28 in10.0 miNW (310°)15.0 mphClear
7:35 AM-22.0 °F-29.2 °F69 %30.28 in10.0 miWNW (300°)13.8 mphClear
7:55 AM-22.0 °F-29.2 °F69 %30.28 in10.0 miWNW (300°)12.7 mphClear
8:15 AM-22.0 °F-29.2 °F69 %30.29 in10.0 miWNW (290°)11.5 mphClear
8:35 AM-22.0 °F-29.2 °F69 %30.29 in10.0 miWNW (290°)10.4 mphClear
8:55 AM-22.0 °F-29.2 °F69 %30.29 in10.0 miWNW (300°)10.4 mphClear
9:15 AM-22.0 °F-29.2 °F69 %30.30 in10.0 miWNW (290°)11.5 mphClear
9:35 AM-22.0 °F-29.2 °F69 %30.31 in10.0 miWNW (290°)12.7 mphClear
9:55 AM-20.2 °F-27.4 °F69 %30.30 in10.0 miWNW (290°)12.7 mphClear
10:15 AM-20.2 °F-29.2 °F63 %30.30 in10.0 miWNW (290°)12.7 mphClear
10:35 AM-20.2 °F-27.4 °F69 %30.31 in10.0 miWest (280°)11.5 mphClear
10:55 AM-20.2 °F-27.4 °F69 %30.31 in10.0 miWest (280°)13.8 mphClear
11:15 AM-18.4 °F-27.4 °F63 %30.31 in10.0 miWNW (290°)13.8 mphClear
11:35 AM-18.4 °F-27.4 °F63 %30.31 in10.0 miWest (280°)13.8 mphClear
11:55 AM-18.4 °F-25.6 °F70 %30.31 in10.0 miWest (280°)12.7 mphClear
12:15 PM-18.4 °F-25.6 °F70 %30.30 in10.0 miWest (280°)11.5 mphClear
12:35 PM-16.6 °F-25.6 °F64 %30.30 in10.0 miWest (270°)12.7 mphClear
12:55 PM-16.6 °F-25.6 °F64 %30.30 in10.0 miWest (280°)10.4 mphClear
1:15 PM-16.6 °F-23.8 °F70 %30.29 inWest (280°)13.8 mphClear
1:35 PM-14.8 °F-23.8 °F64 %30.28 inWest (270°)12.7 mphClear
1:55 PM-13.0 °F-22.0 °F64 %30.27 inWest (270°)12.7 mphClear
2:15 PM-13.0 °F-22.0 °F64 %30.26 inWest (260°)13.8 mphClear
2:35 PM-13.0 °F-22.0 °F64 %30.25 inWest (270°)12.7 mphClear
3:15 PM-13.0 °F-22.0 °F64 %30.25 inWest (280°)12.7 mphClear
3:35 PM0.0 °F0.0 °F30.23 inWest (280°)12.7 mph
3:55 PM-11.2 °F-20.2 °F64 %30.23 inWest (280°)12.7 mphClear
4:15 PM0.0 °F0.0 °F30.23 inWest (270°)12.7 mph
4:35 PM-13.0 °F-20.2 °F70 %30.22 inWest (260°)10.4 mphClear
4:55 PM0.0 °F0.0 °F30.21 inWest (280°)9.2 mph
5:15 PM-11.2 °F-20.2 °F64 %30.20 inWSW (250°)8.1 mphClear
5:35 PM-13.0 °F-20.2 °F70 %30.21 inWest (260°)8.1 mphClear
5:55 PM-13.0 °F-20.2 °F70 %30.20 inWSW (240°)5.8 mphClear
6:15 PM-14.8 °F-22.0 °F70 %30.19 inSW (220°)5.8 mphClear
6:35 PM-16.6 °F-22.0 °F76 %30.18 inSSW (200°)6.9 mphClear
6:55 PM-16.6 °F-22.0 °F76 %30.18 inSSW (200°)5.8 mphClear
7:15 PM-16.6 °F-22.0 °F76 %30.17 inSSW (200°)6.9 mphClear
7:35 PM-16.6 °F-23.8 °F70 %30.16 inSSW (210°)6.9 mphClear
7:55 PM-16.6 °F-23.8 °F70 %30.15 inSouth (190°)8.1 mphClear
8:15 PM-16.6 °F-23.8 °F70 %30.14 inSouth (190°)8.1 mphClear
8:35 PM-16.6 °F-23.8 °F70 %30.14 inSouth (180°)5.8 mphClear
9:15 PM-13.0 °F-20.2 °F70 %30.11 inSSW (200°)10.4 mphOvercast
9:35 PM-11.2 °F-18.4 °F70 %30.10 inSSW (200°)8.1 mphOvercast
10:15 PM-7.6 °F-14.8 °F71 %30.08 inSSW (200°)10.4 mphOvercast
10:35 PM-7.6 °F-13.0 °F77 %30.07 inSSW (200°)13.8 mphOvercast
10:55 PM-5.8 °F-13.0 °F71 %30.06 inSSW (200°)11.5 mphSnowHeavy Snow
11:15 PM-4.0 °F-11.2 °F71 %30.05 inSouth (190°)11.5 mphSnowHeavy Snow
11:35 PM-4.0 °F-11.2 °F71 %30.04 inSSW (200°)15.0 mphOvercast
11:55 PM-4.0 °F-9.4 °F78 %30.03 inSSW (200°)16.1 mphOvercast
Hourly data recorded from KD50, located miles away from Fortuna, North Dakota







STORIES FROM OUR PARTNERS